Date String (YYYY-MM-DD hh:mm:ss) UTC,Instrument flags,Ambient pressure (hPa),Sample flow (lpm),Bypass flow (lpm),Sample temperature (°C),Ambient temperature (°C),ASC tube jacket temperature (°C),LED temperature (°C),Box temperature (°C),Sample RH (%),Span deviation,Mass concentration (μg/m³),Mass concentration (μg/m³),Mass concentration (μg/m³)
DateTimeUTC,F1_M11,P_M11,Q1_M11,Q2_M11,T1_M11,T2_M11,T3_M11,T4_M11,T5_M11,U1_M11,ZSPAN_M11,X0_M11,X2_M11,X1_M11
2023-02-01 21:00:00,,0824.8,5.01,0.00,26.2,25.1,00.0,34.9,28.0,07.9,0000.9,0025.23,0014.94,0013.05
2023-02-01 21:01:00,,0824.8,5.03,0.00,26.2,25.1,00.0,35.0,28.1,07.9,0001.1,0025.46,0014.98,0013.11
2023-02-01 21:02:00,,0824.8,5.00,0.00,26.3,25.1,00.0,35.0,28.1,07.9,0000.9,0025.72,0014.97,0013.09
2023-02-01 21:03:00,,0824.8,4.98,0.00,26.3,25.1,00.0,35.0,28.1,07.8,0000.9,0025.21,0014.89,0013.04
2023-02-01 21:04:00,,0824.8,4.96,0.00,26.3,25.1,00.0,35.0,28.1,07.9,0001.5,0025.13,0014.72,0012.94
2023-02-01 21:05:00,,0824.8,4.98,0.00,26.3,25.2,00.0,35.0,28.1,07.9,0001.8,0024.80,0014.47,0012.73
2023-02-01 21:06:00,,0824.8,5.03,0.00,26.3,25.2,00.0,35.0,28.1,07.9,0002.1,0025.06,0014.21,0012.51
2023-02-01 21:07:00,,0824.8,5.01,0.00,26.3,25.2,00.0,35.0,28.2,07.9,0002.5,0025.19,0014.03,0012.34
2023-02-01 21:08:00,,0824.8,5.02,0.00,26.4,25.2,00.0,35.1,28.2,07.8,0002.6,0025.13,0013.97,0012.25
2023-02-01 21:09:00,,0824.9,4.99,0.00,26.4,25.2,00.0,35.1,28.2,07.8,0002.6,0025.32,0013.96,0012.23
2023-02-01 21:10:00,,0824.9,4.97,0.00,26.4,25.2,00.0,35.1,28.2,07.8,0003.1,0025.21,0013.97,0012.22
2023-02-01 21:11:00,,0824.9,5.02,0.00,26.4,25.3,00.0,35.1,28.2,07.9,0000.0,0025.00,0014.01,0012.28
2023-02-01 21:12:00,,0825.0,5.02,0.00,26.4,25.3,00.0,35.1,28.2,08.1,0001.1,0025.85,0014.11,0012.37
2023-02-01 21:13:00,,0824.9,4.97,0.00,26.4,25.3,00.0,35.1,28.2,08.2,0001.2,0025.79,0014.27,0012.47
2023-02-01 21:14:00,,0824.9,4.97,0.00,26.4,25.3,00.0,35.1,28.3,08.1,0001.3,0026.17,0014.40,0012.56
2023-02-01 21:15:00,,0824.9,5.01,0.00,26.5,25.3,00.0,35.2,28.3,08.3,0001.5,0026.30,0014.53,0012.69
2023-02-01 21:16:00,,0824.9,4.99,0.00,26.5,25.3,00.0,35.2,28.3,08.4,0001.7,0026.72,0014.65,0012.80
2023-02-01 21:17:00,,0824.9,4.98,0.00,26.5,25.3,00.0,35.2,28.3,08.2,0001.5,0026.37,0014.80,0012.93
2023-02-01 21:18:00,,0824.9,5.03,0.00,26.5,25.4,00.0,35.2,28.3,07.9,0001.1,0026.39,0014.88,0012.99
2023-02-01 21:19:00,,0824.9,4.98,0.00,26.5,25.4,00.0,35.2,28.3,07.9,0001.0,0026.33,0014.83,0012.97
2023-02-01 21:20:00,,0824.9,5.02,0.00,26.5,25.4,00.0,35.2,28.3,07.8,0001.3,0026.46,0014.79,0012.94
2023-02-01 21:21:00,,0824.9,4.95,0.00,26.5,25.4,00.0,35.2,28.3,07.9,0001.0,0025.79,0014.74,0012.91
2023-02-01 21:22:00,,0824.9,4.99,0.00,26.6,25.4,00.0,35.3,28.4,08.0,0001.4,0025.64,0014.71,0012.88
2023-02-01 21:23:00,,0824.9,5.02,0.00,26.6,25.4,00.0,35.3,28.4,07.9,0002.0,0024.79,0014.72,0012.86
2023-02-01 21:24:00,,0824.9,4.99,0.00,26.6,25.4,00.0,35.3,28.4,08.0,0002.7,0025.00,0014.65,0012.85
2023-02-01 21:25:00,,0824.9,5.00,0.00,26.6,25.5,00.0,35.3,28.4,08.0,0002.8,0025.04,0014.65,0012.85
2023-02-01 21:26:00,,0824.9,5.02,0.00,26.6,25.5,00.0,35.3,28.4,08.3,0002.5,0025.15,0014.70,0012.84
2023-02-01 21:27:00,,0825.0,4.99,0.00,26.6,25.5,00.0,35.3,28.4,08.5,0002.4,0025.50,0014.80,0012.89
2023-02-01 21:28:00,,0825.0,4.99,0.00,26.6,25.5,00.0,35.4,28.4,08.7,0002.1,0026.09,0014.88,0012.96
2023-02-01 21:29:00,,0825.0,5.01,0.00,26.7,25.5,00.0,35.4,28.5,08.7,0002.6,0026.16,0014.96,0013.06
2023-02-01 21:30:00,,0825.0,5.00,0.00,26.7,25.5,00.0,35.4,28.5,08.5,0002.5,0026.93,0015.08,0013.17
2023-02-01 21:31:00,,0824.9,4.99,0.00,26.7,25.6,00.0,35.4,28.5,08.5,0002.6,0028.00,0015.27,0013.27
2023-02-01 21:32:00,,0824.9,5.01,0.00,26.7,25.6,00.0,35.4,28.5,08.4,0002.4,0028.25,0015.42,0013.39
2023-02-01 21:33:00,,0824.9,5.02,0.00,26.7,25.6,00.0,35.4,28.5,08.3,0002.1,0028.18,0015.63,0013.60
2023-02-01 21:34:00,,0824.9,4.99,0.00,26.7,25.6,00.0,35.4,28.5,08.3,0001.9,0029.05,0015.83,0013.78
2023-02-01 21:35:00,,0824.9,5.02,0.00,26.7,25.6,00.0,35.5,28.5,08.3,0001.2,0030.22,0016.06,0013.95
2023-02-01 21:36:00,,0824.9,4.99,0.00,26.8,25.6,00.0,35.5,28.6,08.1,0000.7,0031.86,0016.27,0014.14
2023-02-01 21:37:00,,0824.9,5.02,0.00,26.8,25.6,00.0,35.5,28.6,08.1,0000.3,0032.47,0016.49,0014.36
2023-02-01 21:38:00,,0824.9,4.99,0.00,26.8,25.6,00.0,35.5,28.6,08.2,0000.2,0033.02,0016.69,0014.55
2023-02-01 21:39:00,,0825.0,5.00,0.00,26.8,25.7,00.0,35.5,28.6,08.2,0000.4,0032.54,0016.88,0014.70
2023-02-01 21:40:00,,0825.0,5.00,0.00,26.8,25.7,00.0,35.5,28.6,08.2,0000.8,0033.66,0017.08,0014.84
2023-02-01 21:41:00,,0825.0,4.99,0.00,26.8,25.7,00.0,35.5,28.6,08.2,0000.6,0034.45,0017.23,0014.97
2023-02-01 21:42:00,,0825.0,5.00,0.00,26.9,25.7,00.0,35.6,28.6,08.3,0000.8,0034.22,0017.39,0015.15
2023-02-01 21:43:00,,0825.0,4.98,0.00,26.9,25.7,00.0,35.6,28.6,08.4,0000.6,0035.29,0017.46,0015.28
2023-02-01 21:44:00,,0825.0,4.99,0.00,26.9,25.7,00.0,35.6,28.7,08.3,-000.0,0035.60,0017.57,0015.37
2023-02-01 21:45:00,,0825.0,5.01,0.00,26.9,25.7,00.0,35.6,28.7,08.3,0000.0,0035.33,0017.72,0015.47
2023-02-01 21:46:00,,0825.0,5.01,0.00,26.9,25.7,00.0,35.6,28.7,08.2,-000.1,0034.06,0017.76,0015.53
2023-02-01 21:47:00,,0825.0,4.98,0.00,26.9,25.8,00.0,35.6,28.7,08.2,0000.0,0032.50,0017.79,0015.58
2023-02-01 21:48:00,,0825.0,5.00,0.00,26.9,25.8,00.0,35.6,28.7,08.1,0000.6,0032.58,0017.85,0015.61
2023-02-01 21:49:00,,0825.0,4.98,0.00,27.0,25.8,00.0,35.7,28.8,08.3,0001.3,0032.59,0017.81,0015.59
2023-02-01 21:50:00,,0825.0,5.01,0.00,27.0,25.8,00.0,35.7,28.8,08.3,0000.8,0032.93,0017.79,0015.58
2023-02-01 21:51:00,,0825.1,5.02,0.00,27.0,25.8,00.0,35.7,28.8,08.5,-000.3,0032.32,0017.73,0015.60
2023-02-01 21:52:00,,0825.1,5.01,0.00,27.0,25.8,00.0,35.7,28.8,08.2,-000.4,0032.03,0017.72,0015.59
2023-02-01 21:53:00,,0825.0,4.97,0.00,27.0,25.8,00.0,35.7,28.8,08.4,-000.5,0031.21,0017.66,0015.55
2023-02-01 21:54:00,,0825.1,5.00,0.00,27.0,25.8,00.0,35.7,28.8,08.3,-000.6,0029.95,0017.63,0015.50
2023-02-01 21:55:00,,0825.1,5.01,0.00,27.0,25.8,00.0,35.7,28.8,08.1,0000.1,0030.03,0017.59,0015.39
2023-02-01 21:56:00,,0825.1,4.98,0.00,27.0,25.9,00.0,35.8,28.8,08.2,0000.7,0029.42,0017.45,0015.29
2023-02-01 21:57:00,,0825.1,5.04,0.00,27.1,25.9,00.0,35.8,28.8,08.2,0000.8,0028.99,0017.30,0015.21
2023-02-01 21:58:00,,0825.2,4.97,0.00,27.1,25.9,00.0,35.8,28.9,08.0,0001.0,0029.78,0017.19,0015.11
2023-02-01 21:59:00,,0825.2,5.01,0.00,27.1,25.9,00.0,35.8,28.9,08.3,0000.8,0029.36,0017.07,0015.03
